Location: Saint-Palais-sur-Mer
(45.6429°N, 1.0859°W)
Time: 01:04:48
(UTC+01:00)

Tiros 1 despin weight - Pass Details

Date: 15 February 2026
Orbit: 556 x 593 km, 48.2° (Epoch: 13 March)

Event Time Altitude Azimuth Distance (km) Brightness Sun altitude
Enters shadow 23:00:12 -1° 287° (WNW) 2,808 ? -45.7°
Rises 23:00:23 0° 287° (WNW) 2,739 - -45.8°
Reaches altitude 10° 23:02:50 10° 276° (W) 1,845 - -46.1°
Maximum altitude 23:06:27 28° 216° (SW) 1,061 - -46.6°
Drops below altitude 10° 23:10:06 10° 157° (SSE) 1,852 - -47.1°
Sets 23:12:35 0° 146° (SE) 2,753 - -47.4°
